Regional Weather Roundup
Issued by NWS

Home | Current Version | Previous Version | Text Only | Print | Product List | Glossary On
Versions: 1 2 3 4 5 6 7 8 9 10 11 12 13 14 15 16 17 18 19 20 21 22 23 24 25 26 27 28 29 30 31 32 33 34 35 36 37 38 39 40 41 42 43 44 45 46 47 48 49 50
000
ASUS44 KLIX 252210
RWRLA
LOUISIANA WEATHER ROUNDUP
NATIONAL WEATHER SERVICE NEW ORLEANS LA
400 PM CST SUN JAN 25 2015

NOTE: "FAIR" INDICATES FEW OR NO CLOUDS BELOW 12,000 FEET WITH NO
      SIGNIFICANT WEATHER AND/OR OBSTRUCTIONS TO VISIBILITY.
      SKY/WX - SKY CONDITION AND SIGNIFICANT WEATHER.
      TMP - AIR TEMPERATURE.    DP   - DEWPOINT TEMPERATURE.
      RH  - RELATIVE HUMIDITY.  PRES - PRESSURE.
      HX  - HEAT INDEX.         WCI  - WIND CHILL INDEX.

*  THESE STATIONS ARE NOT NWS OR FAA STATIONS AND ARE NOT UNDER
   NWS QUALITY CONTROL.

LAZ040-048-061>063-065-066-069-252300-
SOUTHEAST LOUISIANA

CITY           SKY/WX    TMP DP  RH WIND       PRES   REMARKS
N.O. AUDUBON     N/A     62  43  49 MISG        N/A
N.O. INTL ARPT MOSUNNY   66  39  37 SW21G30   29.91F
N.O. LAKEFRONT SUNNY     66  39  37 SW28      29.90F
N.O. DOWNTOWN* FAIR      66  37  34 SW15G24   29.92S
SLIDELL        SUNNY     65  39  38 SW8G23    29.88S
BATON ROUGE    SUNNY     67  38  34 SW23G31   29.87F
BOOTHVILLE     MOSUNNY   62  53  72 SW18G30   29.96F
BELLE CHASSE   MOSUNNY   65  35  33 SW20G36   29.92F
BOGALUSA*        N/A     68  38  32 SW14      29.85F
GALLIANO*      CLEAR     65  41  40 MISG      29.96F
NEW ROADS*     FAIR      67  43  42 MISG      29.88S
GONZALES*      FAIR      65  38  36 SW17G23   29.90F
HAMMOND*       SUNNY     68  34  28 SW15G29   29.87F
HOUMA*         SUNNY     63  43  48 W20G29    29.96F
PORT FOURCHON* CLEAR     61  50  67 W15G26    30.01F

$$

LAZ041-044-053-054-252300-
SOUTHWEST LOUISIANA

CITY           SKY/WX    TMP DP  RH WIND       PRES   REMARKS
LAKE CHARLES   SUNNY     67  43  41 W14G23    29.93F
LAFAYETTE      SUNNY     64  45  49 SW16G32   29.91F
PATTERSON      SUNNY     63  43  48 W23G33    29.96F
SALT POINT       N/A     58  50  75 W9        29.95F
NEW IBERIA     LGT RAIN  65  43  44 SW22G31   29.93F
CHENAULT AIRPK NOT AVBL

$$

LAZ027-028-252300-
CENTRAL LOUISIANA

CITY           SKY/WX    TMP DP  RH WIND       PRES   REMARKS
FORT POLK      SUNNY     66  38  35 NW21G30   29.91R
ALEXANDRIA INT SUNNY     66  40  38 W14G26    29.88R
ALEXANDRIA     SUNNY     68  39  34 W13G24    29.87R

$$

LAZ001-002-252300-
NORTHWEST LOUISIANA

CITY           SKY/WX    TMP DP  RH WIND       PRES   REMARKS
SHREVEPORT     MOSUNNY   65  30  27 NW25G40   29.91R
BARKSDALE AFB  SUNNY     64  30  27 NW18G29   29.92R
DTN SHREVEPORT SUNNY     63  26  24 NW21G32   29.92R

$$

LAZ014-016-252300-
NORTHEAST LOUISIANA

CITY           SKY/WX    TMP DP  RH WIND       PRES   REMARKS
MONROE         SUNNY     64  36  35 W18G29    29.85R
TALLULAH       SUNNY     65  36  34 W15G25    29.83R

$$



USA.gov is the U.S. government's official web portal to all federal, state and local government web resources and services.